7 * 24
多渠道服务支持
STARLINK-37322(NORAD编号68715)是美国SpaceX公司星链(Starlink)星座中的一颗低轨互联网通信卫星,隶属于Starlink Gen2组网卫星批次。作为星链星座规模化部署的组成部分,该卫星运行于近地轨道,承担全球范围内高带宽互联网接入服务的卫星节点功能,为偏远地区、移动场景等用户提供通信支撑。NORAD 68715是北美防空司令部为其分配的唯一空间目标识别编号,用于轨道监测与碰撞预警,该卫星可通过公开航天数据库查询其轨道参数,是星链低轨星座组网进程中的常规在轨卫星。
美国
(US)
| 数据来源 | 国际轨道数据 |
| 星历时间: | 2026-05-24T12:00:02+0800 1天前 查看轨道信息 |
| 半长轴: | 6807.823km |
| 偏心率: | 0.0000781 |
| 轨道倾角: | 53.160° |
| 近地点辐角 | 94.147° |
| 升交点赤经 | 43.648° |
| 平近点角 | 15.961° |
| 近地点: | 429.154km |
| 远地点: | 430.218km |
| 周期: | 93.169分钟 |
| 每日圈数: | 15.455763 |